FW8343 Weather Reports


time (UTC)temp
C
wind
direction
speed
KPH
gust
KPH
rain 1hr
cm
rain 24hr
cm
rain mn
cm
humidity
%
barometer
mb
20260503213513 18 262 8.0 17.7 0.00 0.00 0.00 25 1003.8
20260503213033 18 330 6.4 17.7 0.00 0.00 0.00 27 1003.9
20260503212512 18 288 6.4 19.3 0.00 0.00 0.00 27 1003.7
20260503212013 18 216 9.7 19.3 0.00 0.00 0.00 24 1003.6
20260503211532 19 289 6.4 17.7 0.00 0.00 0.00 26 1003.8
20260503211010 18 315 3.2 16.1 0.00 0.00 0.00 27 1003.8
20260503210510 19 317 4.8 16.1 0.00 0.00 0.00 27 1003.7
20260503210033 19 272 4.8 17.7 0.00 0.00 0.00 25 1003.7
20260503205510 18 250 3.2 17.7 0.00 0.00 0.00 31 1003.6
20260503205012 18 313 4.8 19.3 0.00 0.00 0.00 27 1003.7
20260503204529 18 297 6.4 19.3 0.00 0.00 0.00 27 1003.7
20260503204017 18 280 3.2 17.7 0.00 0.00 0.00 27 1003.8
20260503203513 19 243 6.4 17.7 0.00 0.00 0.00 28 1003.8
20260503203032 18 254 6.4 19.3 0.00 0.00 0.00 26 1003.7
20260503202509 18 258 8.0 19.3 0.00 0.00 0.00 28 1003.9
20260503202011 18 305 6.4 19.3 0.00 0.00 0.00 31 1003.9
20260503201528 19 278 4.8 17.7 0.00 0.00 0.00 30 1003.9
20260503201011 19 263 3.2 17.7 0.00 0.00 0.00 32 1004.0
20260503200514 19 296 6.4 17.7 0.00 0.00 0.00 29 1004.0
20260503200028 19 265 6.4 14.5 0.00 0.00 0.00 33 1003.8
20260503195509 19 240 3.2 16.1 0.00 0.00 0.00 32 1003.9
20260503195014 20 238 8.0 16.1 0.00 0.00 0.00 32 1004.0
20260503194533 20 233 3.2 19.3 0.00 0.00 0.00 33 1004.0
20260503194009 20 267 3.2 19.3 0.00 0.00 0.00 33 1004.0
20260503193511 19 296 4.8 22.5 0.00 0.00 0.00 35 1004.0
20260503193029 20 295 4.8 22.5 0.00 0.00 0.00 32 1004.1
20260503192509 20 280 6.4 22.5 0.00 0.00 0.00 32 1004.2
20260503192010 19 245 3.2 22.5 0.00 0.00 0.00 34 1004.1
20260503191536 20 220 9.7 22.5 0.00 0.00 0.00 30 1004.1
20260503191007 20 265 6.4 22.5 0.00 0.00 0.00 34 1004.2
20260503190511 20 288 6.4 22.5 0.00 0.00 0.00 33 1004.2
20260503190028 19 281 6.4 17.7 0.00 0.00 0.00 36 1004.3
20260503185510 19 305 1.6 16.1 0.00 0.00 0.00 36 1004.3
20260503185011 20 263 6.4 16.1 0.00 0.00 0.00 36 1004.4
20260503184530 20 294 6.4 16.1 0.00 0.00 0.00 38 1004.4
20260503184010 19 262 6.4 16.1 0.00 0.00 0.00 36 1004.3
20260503183514 19 313 3.2 20.9 0.00 0.00 0.00 37 1004.4
20260503183029 19 236 3.2 22.5 0.00 0.00 0.00 41 1004.5
20260503182507 19 268 8.0 22.5 0.00 0.00 0.00 37 1004.3
20260503182013 19 265 4.8 22.5 0.00 0.00 0.00 39 1004.4
20260503181529 19 300 3.2 19.3 0.00 0.00 0.00 42 1004.6
20260503181012 19 270 6.4 19.3 0.00 0.00 0.00 38 1004.6
20260503180515 18 274 3.2 17.7 0.00 0.00 0.00 41 1004.6
20260503180043 19 279 8.0 17.7 0.00 0.00 0.00 40 1004.8
20260503175510 19 274 3.2 17.7 0.00 0.00 0.00 43 1004.8
20260503175013 18 275 6.4 17.7 0.00 0.00 0.00 41 1004.9
20260503174532 18 299 4.8 17.7 0.00 0.00 0.00 40 1004.8
20260503174010 18 288 3.2 20.9 0.00 0.00 0.00 42 1005.0
20260503173512 18 321 3.2 20.9 0.00 0.00 0.00 42 1005.1
20260503173030 18 290 4.8 14.5 0.00 0.00 0.00 44 1004.9
20260503172512 18 272 6.4 14.5 0.00 0.00 0.00 43 1005.1
20260503172011 17 276 3.2 12.9 0.00 0.00 0.00 44 1005.1
20260503171530 18 296 4.8 16.1 0.00 0.00 0.00 45 1005.1
20260503171012 17 300 4.8 17.7 0.00 0.00 0.00 47 1005.1
20260503170512 18 303 3.2 17.7 0.00 0.00 0.00 44 1005.1
20260503151009 16 258 3.2 12.9 0.00 0.00 0.00 52 1005.2
20260503150511 16 250 3.2 9.7 0.00 0.00 0.00 52 1005.1
20260503131009 11 215 0.0 4.8 0.00 0.00 0.00 71 1005.5
20260503130511 10 215 1.6 4.8 0.00 0.00 0.00 73 1005.6
20260503110510 8 0 0.0 0.0 0.00 0.00 0.00 78 1005.2
20260503090512 10 164 1.6 8.0 0.00 0.00 0.00 75 1006.1
20260503081532 11 0 0.0 6.4 0.00 0.00 0.00 75 1006.9
20260503081009 11 190 1.6 8.0 0.00 0.00 0.00 73 1006.9
20260503080512 11 190 1.6 12.9 0.00 0.00 0.00 73 1007.0
20260503072510 11 215 0.0 6.4 0.00 0.00 0.00 75 1007.8
20260503072015 11 0 1.6 6.4 0.00 0.00 0.00 74 1007.8
20260503071532 11 215 3.2 8.0 0.00 0.00 0.00 74 1007.9
20260503071011 11 215 4.8 8.0 0.00 0.00 0.00 74 1007.9
20260503070512 11 215 4.8 8.0 0.00 0.00 0.00 73 1008.0
20260503060104 11 0 0.0 6.4 0.00 0.00 0.00 65 1008.8
20260503055013 11 265 3.2 6.4 0.00 0.00 0.00 63 1008.9
20260503054536 11 265 1.6 11.3 0.00 0.00 0.00 63 1008.9
20260503054010 11 265 3.2 11.3 0.00 0.00 0.00 63 1009.1
20260503053513 11 273 3.2 11.3 0.00 0.00 0.00 63 1009.0
20260503053032 12 0 1.6 4.8 0.00 0.00 0.00 64 1009.0
20260503052509 12 260 1.6 4.8 0.00 0.00 0.00 64 1009.0
20260503052013 12 260 0.0 6.4 0.00 0.00 0.00 63 1008.9
20260503051529 12 260 1.6 9.7 0.00 0.00 0.00 62 1009.0
20260503051009 12 242 3.2 9.7 0.00 0.00 0.00 62 1008.9
20260503050511 12 236 3.2 9.7 0.00 0.00 0.00 61 1009.0
20260503050033 12 254 1.6 8.0 0.00 0.00 0.00 61 1008.9
20260503045510 12 238 3.2 11.3 0.00 0.00 0.00 61 1008.9
20260503045011 12 0 1.6 11.3 0.00 0.00 0.00 60 1008.9
20260503044529 12 233 3.2 14.5 0.00 0.00 0.00 60 1009.0
20260503044011 12 279 3.2 14.5 0.00 0.00 0.00 60 1008.9
20260503043510 12 225 6.4 19.3 0.00 0.00 0.00 59 1008.9
20260503043040 12 0 6.4 19.3 0.00 0.00 0.00 59 1008.9
20260503042513 12 211 8.0 19.3 0.00 0.00 0.00 57 1009.0
20260503042017 12 226 6.4 16.1 0.00 0.00 0.00 57 1008.9
20260503041530 12 219 6.4 16.1 0.00 0.00 0.00 56 1009.0
20260503041016 12 205 4.8 16.1 0.00 0.00 0.00 57 1009.1
20260503040510 12 219 6.4 16.1 0.00 0.00 0.00 57 1009.2
20260503040028 12 225 4.8 11.3 0.00 0.00 0.00 60 1009.2
20260503035510 12 227 3.2 11.3 0.00 0.00 0.00 58 1009.2
20260503035010 12 227 1.6 8.0 0.00 0.00 0.00 55 1009.2
20260503034528 12 227 0.0 8.0 0.00 0.00 0.00 57 1009.2
20260503034006 12 205 1.6 11.3 0.00 0.00 0.00 60 1009.3
20260503033514 13 228 4.8 12.9 0.00 0.00 0.00 60 1009.3
20260503033034 13 222 6.4 16.1 0.00 0.00 0.00 58 1009.2
20260503032511 12 226 6.4 16.1 0.00 0.00 0.00 59 1009.4
20260503032016 12 280 4.8 12.9 0.00 0.00 0.00 57 1009.6
20260503031530 12 263 4.8 12.9 0.00 0.00 0.00 54 1009.6
20260503031011 12 211 4.8 12.9 0.00 0.00 0.00 55 1009.6
20260503030509 12 212 1.6 12.9 0.00 0.00 0.00 57 1009.8
20260503030030 12 225 3.2 9.7 0.00 0.00 0.00 54 1009.9
20260503025510 12 226 3.2 9.7 0.00 0.00 0.00 54 1009.9
20260503025008 12 210 1.6 9.7 0.00 0.00 0.00 58 1010.0
20260503024531 12 205 3.2 9.7 0.00 0.00 0.00 57 1009.9
20260503024010 12 197 4.8 11.3 0.00 0.00 0.00 55 1009.9
20260503023514 12 190 3.2 16.1 0.00 0.00 0.00 58 1009.8
20260503023029 12 185 4.8 16.1 0.00 0.00 0.00 58 1009.8
20260503022508 12 194 8.0 16.1 0.00 0.00 0.00 54 1009.9
20260503022014 12 196 3.2 11.3 0.00 0.00 0.00 55 1010.0
20260503021541 12 196 4.8 12.9 0.00 0.00 0.00 53 1009.9
20260503021009 12 181 4.8 14.5 0.00 0.00 0.00 55 1010.0
20260503020509 12 195 8.0 14.5 0.00 0.00 0.00 55 1010.0
20260503020030 12 172 6.4 14.5 0.00 0.00 0.00 54 1010.0
20260503015516 12 183 8.0 14.5 0.00 0.00 0.00 56 1010.0
20260503015013 12 180 8.0 12.9 0.00 0.00 0.00 57 1010.1
20260503014529 12 184 6.4 11.3 0.00 0.00 0.00 55 1010.0
20260503014011 12 186 4.8 9.7 0.00 0.00 0.00 55 1010.1
20260503013512 12 171 4.8 9.7 0.00 0.00 0.00 54 1010.0
20260503013031 12 180 3.2 9.7 0.00 0.00 0.00 56 1010.1
20260503012509 12 180 4.8 9.7 0.00 0.00 0.00 55 1010.0
20260503012015 12 195 6.4 9.7 0.00 0.00 0.00 56 1010.1
20260503011532 12 193 4.8 9.7 0.00 0.00 0.00 55 1010.1
20260503011010 13 194 4.8 11.3 0.00 0.00 0.00 54 1010.1
20260503010513 13 194 4.8 11.3 0.00 0.00 0.00 53 1010.2
20260503010030 13 199 4.8 11.3 0.00 0.00 0.00 51 1010.1
20260503005509 13 194 1.6 11.3 0.00 0.00 0.00 50 1010.2
20260503005013 13 202 3.2 11.3 0.00 0.00 0.00 51 1010.3
20260503004528 13 213 1.6 12.9 0.00 0.00 0.00 49 1010.3
20260503004008 13 223 3.2 16.1 0.00 0.00 0.00 46 1010.4
20260503003509 13 229 6.4 16.1 0.00 0.00 0.00 46 1010.4
20260503003039 13 213 6.4 16.1 0.00 0.00 0.00 47 1010.4
20260503002509 13 221 6.4 24.1 0.00 0.00 0.00 47 1010.5
20260503002010 13 227 8.0 24.1 0.00 0.00 0.00 46 1010.6
20260503001535 13 218 4.8 12.9 0.00 0.00 0.00 47 1010.6
20260503001012 13 226 1.6 12.9 0.00 0.00 0.00 51 1010.6
20260503000511 13 221 4.8 14.5 0.00 0.00 0.00 48 1010.7
20260503000029 13 223 6.4 14.5 0.00 0.00 0.00 47 1010.8
20260502235510 13 194 6.4 14.5 0.00 0.00 0.00 46 1010.8
20260502235014 13 221 6.4 14.5 0.00 0.00 0.00 49 1010.9
20260502234529 13 237 0.0 9.7 0.00 0.00 0.00 46 1010.9
20260502234009 13 210 3.2 12.9 0.00 0.00 0.00 49 1011.0
20260502233509 13 240 4.8 16.1 0.00 0.00 0.00 43 1011.0
20260502233028 13 263 3.2 16.1 0.00 0.00 0.00 44 1011.2
20260502232508 13 202 4.8 29.0 0.00 0.00 0.00 49 1011.2
20260502232009 13 225 11.3 32.2 0.00 0.00 0.00 43 1011.2
20260502231528 13 208 14.5 32.2 0.00 0.00 0.00 45 1011.4
20260502231008 14 203 9.7 19.3 0.00 0.00 0.00 42 1011.2
20260502230513 14 269 6.4 16.1 0.00 0.00 0.00 43 1011.2
20260502230031 14 226 6.4 17.7 0.00 0.00 0.00 41 1011.2
20260502225511 14 227 6.4 17.7 0.00 0.00 0.00 43 1011.2
20260502225014 15 277 4.8 16.1 0.00 0.00 0.00 40 1011.3
20260502224535 14 273 4.8 16.1 0.00 0.00 0.00 42 1011.3
20260502224010 14 299 6.4 20.9 0.00 0.00 0.00 42 1011.3
20260502223512 14 215 8.0 22.5 0.00 0.00 0.00 41 1011.4
20260502223031 13 215 4.8 22.5 0.00 0.00 0.00 44 1011.5
20260502222512 14 220 4.8 24.1 0.00 0.00 0.00 41 1011.6
20260502222015 14 240 8.0 24.1 0.00 0.00 0.00 39 1011.5
20260502221531 14 227 4.8 17.7 0.00 0.00 0.00 38 1011.6
20260502221010 13 232 4.8 20.9 0.00 0.00 0.00 40 1011.6
20260502220515 13 194 6.4 20.9 0.00 0.00 0.00 45 1011.7
20260502220034 13 226 4.8 14.5 0.00 0.00 0.00 40 1011.7
20260502215509 13 221 6.4 14.5 0.00 0.00 0.00 38 1011.7
20260502215010 13 207 1.6 9.7 0.00 0.00 0.00 41 1011.8
20260502214528 13 198 1.6 12.9 0.00 0.00 0.00 39 1011.8
20260502214013 13 228 1.6 14.5 0.00 0.00 0.00 35 1011.9